Bar Harbor, ME

11:06 PM EDT on October 23, 2019 (GMT -0400)
Hancock County-Bar Harbor

Weather History for KBHB - August, 2019

Change the Weather History Date:

Tuesday, August 20, 2019

  Actual Average Record
Temperature  
Mean Temperature 70 °F -  
Max Temperature 81 °F 76 °F 87 °F (1955)
Min Temperature 59 °F 53 °F 44 °F (2007)
Cooling Degree Days 5    
Growing Degree Days 20 (Base 50)    
Moisture  
Dew Point 61 °F    
Average Humidity 85    
Maximum Humidity 100    
Minimum Humidity 43    
Precipitation  
Precipitation 0.01 in - - ()
Sea Level Pressure  
Sea Level Pressure 29.99 in    
Wind  
Wind Speed 1 mph (West)    
Max Wind Speed 8 mph    
Max Gust Speed -    
Visibility 5 miles    
Events Fog    
Averages and records for this station are not official NWS values.
T = Trace of Precipitation, MM = Missing Value Source: NWS Daily Summary

Daily Weather History Graph

Daily Weather History Graph

Search for Another Location

Airport or City:

Astronomy

Aug. 20, 2019 Rise Set
Actual Time 5:41 AM EDT 7:31 PM EDT
Civil Twilight 5:10 AM EDT 8:02 PM EDT
Nautical Twilight 4:32 AM EDT 8:39 PM EDT
Astronomical Twilight 3:51 AM EDT 9:20 PM EDT
Moon 10:06 PM EDT (8/20) 10:26 AM EDT (8/20)
Length of Visible Light 14h 51m
Length of Day
13h 49m
Waning Gibbous, 78% of the Moon is Illuminated
Aug 20
Waning Gibbous
Aug 23
Last Quarter
Aug 30
New
Sep 5
First Quarter
Sep 14
Full

Hourly Weather History & Observations

Time (EDT) Temp. Heat Index Dew Point Humidity Pressure Visibility Wind Dir Wind Speed Gust Speed Precip Events Conditions
12:56 AM 64.9 °F - 64.0 °F 97% 29.91 in 0.2 mi Calm Calm - N/A Fog Fog
1:56 AM 63.0 °F - 63.0 °F 100% 29.92 in 0.2 mi Calm Calm - N/A Fog Fog
2:10 AM 62.6 °F - 62.6 °F 100% 29.92 in 0.5 mi Calm Calm - N/A Fog Fog
2:25 AM 62.6 °F - 62.6 °F 100% 29.92 in 0.2 mi Calm Calm - N/A Fog Fog
2:56 AM 62.1 °F - 62.1 °F 100% 29.93 in 0.5 mi Calm Calm - N/A Fog Fog
3:12 AM 62.6 °F - 62.6 °F 100% 29.93 in 0.2 mi Calm Calm - N/A Fog Fog
3:37 AM 62.6 °F - 62.6 °F 100% 29.93 in 0.2 mi SSW 4.6 mph - N/A Fog Fog
3:56 AM 62.1 °F - 61.0 °F 96% 29.95 in 0.5 mi Calm Calm - N/A Fog Fog
4:16 AM 60.8 °F - 60.8 °F 100% 29.95 in 0.2 mi Calm Calm - 0.01 in Fog Fog
4:35 AM 60.8 °F - 60.8 °F 100% 29.95 in 0.8 mi Calm Calm - 0.01 in   Mostly Cloudy
4:39 AM 60.8 °F - 60.8 °F 100% 29.95 in 1.2 mi Calm Calm - 0.01 in   Mostly Cloudy
4:45 AM 60.8 °F - 60.8 °F 100% 29.95 in 0.8 mi Calm Calm - 0.01 in   Mostly Cloudy
4:50 AM 60.8 °F - 60.8 °F 100% 29.96 in 0.2 mi Calm Calm - 0.01 in Fog Fog
4:56 AM 60.1 °F - 60.1 °F 100% 29.96 in 0.2 mi Calm Calm - 0.01 in Fog Fog
5:20 AM 60.8 °F - 60.8 °F 100% 29.96 in 0.8 mi Calm Calm - N/A   Mostly Cloudy
5:28 AM 59.0 °F - 59.0 °F 100% 29.97 in 0.2 mi Calm Calm - N/A Fog Fog
5:51 AM 60.8 °F - 60.8 °F 100% 29.98 in 1.0 mi Calm Calm - N/A   Mostly Cloudy
5:53 AM 60.8 °F - 60.8 °F 100% 29.98 in 3.0 mi Calm Calm - N/A   Mostly Cloudy
5:56 AM 60.1 °F - 60.1 °F 100% 29.99 in 8.0 mi Calm Calm - N/A   Scattered Clouds
6:17 AM 60.8 °F - 60.8 °F 100% 29.99 in 1.2 mi Calm Calm - N/A   Clear
6:22 AM 60.8 °F - 60.8 °F 100% 29.99 in 0.2 mi Calm Calm - N/A Fog Fog
6:32 AM 60.8 °F - 60.8 °F 100% 30.00 in 0.8 mi Calm Calm - N/A   Mist
6:34 AM 60.8 °F - 60.8 °F 100% 30.00 in 3.0 mi Calm Calm - N/A   Partly Cloudy
6:56 AM 64.0 °F - 64.0 °F 100% 30.01 in 10.0 mi Variable 3.5 mph - N/A   Clear
7:56 AM 66.9 °F - 64.9 °F 93% 30.03 in 10.0 mi NNW 4.6 mph - N/A   Clear
8:56 AM 71.1 °F - 64.0 °F 78% 30.04 in 10.0 mi North 6.9 mph - N/A   Clear
9:56 AM 73.9 °F - 64.0 °F 71% 30.04 in 10.0 mi Variable 4.6 mph - N/A   Clear
10:56 AM 75.9 °F - 64.0 °F 67% 30.05 in 10.0 mi NW 4.6 mph - N/A   Scattered Clouds
11:56 AM 78.1 °F - 54.0 °F 43% 30.05 in 10.0 mi NNW 4.6 mph - N/A   Partly Cloudy
12:56 PM 79.0 °F - 57.0 °F 47% 30.03 in 10.0 mi North 8.1 mph - N/A   Clear
1:56 PM 80.1 °F 80.7 °F 59.0 °F 48% 30.02 in 10.0 mi North 5.8 mph - N/A   Clear
2:56 PM 81.0 °F 81.1 °F 57.9 °F 45% 30.01 in 10.0 mi Variable 6.9 mph - N/A   Clear
3:56 PM 81.0 °F 81.1 °F 57.9 °F 45% 30.02 in 10.0 mi NNW 5.8 mph - N/A   Clear
4:56 PM 79.0 °F - 60.1 °F 52% 30.03 in 10.0 mi SSW 8.1 mph - N/A   Clear
5:56 PM 80.1 °F 80.4 °F 57.0 °F 45% 30.03 in 10.0 mi West 4.6 mph - N/A   Clear
6:56 PM 75.0 °F - 59.0 °F 57% 30.03 in 10.0 mi SW 4.6 mph - N/A   Clear
7:56 PM 70.0 °F - 60.1 °F 71% 30.04 in 10.0 mi SSW 3.5 mph - N/A   Clear
8:56 PM 66.9 °F - 61.0 °F 81% 30.04 in 10.0 mi SSW 3.5 mph - N/A   Clear
9:56 PM 64.9 °F - 59.0 °F 81% 30.04 in 10.0 mi Calm Calm - N/A   Clear
10:56 PM 64.0 °F - 59.0 °F 84% 30.04 in 10.0 mi SSW 5.8 mph - N/A   Clear
11:56 PM 64.9 °F - 57.9 °F 78% 30.05 in 10.0 mi SW 6.9 mph - N/A   Clear